Hourly Data Report for October 21, 2017

VICTORIA UNIVERSITY CS
BRITISH COLUMBIA

48°27'25.200" N
123°18'16.600" W
60.10 m
1018598
71783
WYJ

Download Data

Hourly Data (October 2017)
Hourly Data Report for October 21, 2017
TIME
LST
Temp Definition
°C
Dew Point Definition
°C
Rel Hum Definition
%
Precip. Amount Definition
mm

Wind Dir Definition
10's deg

Wind Spd Definition
km/h
Visibility Definition
km
Stn Press Definition
kPa
Hmdx Definition


Wind Chill Definition


Weather Definition


00:00 7.9 5.8 86 0.0 12 5   100.41     LegendNANA
01:00 8.0 6.4 89 0.0 10 6   100.34     LegendNANA
02:00 8.1 6.0 86 0.0 12 2   100.29     LegendNANA
03:00 8.1 6.3 88 0.0 11 3   100.23     LegendNANA
04:00 8.1 6.8 92 0.0 13 3   100.11     LegendNANA
05:00 8.3 7.1 92 0.2 12 4   99.98     LegendNANA
06:00 8.3 7.0 91 0.5 12 5   99.86     LegendNANA
07:00 8.4 5.8 83 0.0 14 6   99.78     LegendNANA
08:00 8.5 6.6 88 0.0 14 6   99.74     LegendNANA
09:00 8.7 6.5 86 0.0 11 7   99.74     LegendNANA
10:00 8.6 7.2 91 0.0 14 10   99.72     LegendNANA
11:00 9.1 7.3 89 0.6 16 8   99.76     LegendNANA
12:00 9.3 7.8 90 0.0 15 8   99.71     LegendNANA
13:00 9.1 8.0 93 0.7 15 8   99.70     LegendNANA
14:00 9.1 8.3 95 0.7 15 3   99.63     LegendNANA
15:00 9.3 8.7 96 1.1 13 5   99.41     LegendNANA
16:00 9.1 8.5 96 1.6 12 6   99.32     LegendNANA
17:00 9.3 8.8 96 2.0 14 5   99.26     LegendNANA
18:00 9.4 8.9 97 2.3 15 9   99.29     LegendNANA
19:00 9.1 8.8 98 2.0 17 6   99.32     LegendNANA
20:00 9.1 8.7 98 2.8 16 8   99.38     LegendNANA
21:00 11.1 10.9 99 1.0 23 10   99.37     LegendNANA
22:00 12.0 11.1 94 0.4 23 8   99.41     LegendNANA
23:00 11.9 11.0 94 0.3 22 7   99.48     LegendNANA

Notes on Data Quality.

Legend

  • E = Estimated
  • M = Missing
  • NA = Not Available*
  • [empty] = Indicates an unobserved value
Date modified: